Hourly Data Report for October 02, 2018

VICTORIA UNIVERSITY CS
BRITISH COLUMBIA
Current Station Operator: ECCC - MSC

48°27'25.200" N
123°18'16.600" W
60.10 m
1018598
71783
WYJ

Download Data

Hourly Data (October 2018)
Hourly Data Report for October 2, 2018
TIME
LST
Temp Definition
°C
Dew Point Definition
°C
Rel Hum Definition
%
Precip. Amount Definition
mm

Wind Dir Definition
10's deg

Wind Spd Definition
km/h
Visibility Definition
km
Stn Press Definition
kPa
Hmdx Definition


Wind Chill Definition


Weather Definition


00:00 13.4 11.9 91 0.0 25 4   100.11     LegendNANA
01:00 13.5 11.0 85 0.0 24 6   100.05     LegendNANA
02:00 12.4 10.8 90 0.0 24 7   100.00     LegendNANA
03:00 11.6 10.0 90 0.0 24 2   99.99     LegendNANA
04:00 12.4 8.7 78 0.0 26 9   99.98     LegendNANA
05:00 12.4 8.4 77 0.0 26 13   99.97     LegendNANA
06:00 12.3 8.1 76 0.0 26 11   99.92     LegendNANA
07:00 12.0 8.5 79 0.0 25 7   99.90     LegendNANA
08:00 12.7 7.7 72 0.0 26 10   99.92     LegendNANA
09:00 13.9 6.8 62 0.0 26 11   99.91     LegendNANA
10:00 14.7 6.6 59 0.0 26 14   99.87     LegendNANA
11:00 14.7 5.2 53 0.0 25 15   99.91     LegendNANA
12:00 15.3 4.9 50 0.0 26 13   99.92     LegendNANA
13:00 16.5 4.4 44 0.0 26 11   99.91     LegendNANA
14:00 15.3 4.4 48 0.0 30 10   99.98     LegendNANA
15:00 13.9 2.5 46 0.0 30 13   100.04     LegendNANA
16:00 12.5 3.5 54 0.0 36 5   100.11     LegendNANA
17:00 11.3 5.0 65 0.0 3 6   100.22     LegendNANA
18:00 9.6 4.3 70 0.0 6 1   100.31     LegendNANA
19:00 7.5 4.4 81 0.0 26 1   100.42     LegendNANA
20:00 9.3 4.2 70 0.0 29 3   100.53     LegendNANA
21:00 8.9 4.7 75 0.0 32 3   100.62     LegendNANA
22:00 6.2 4.1 86 0.0 32 3   100.73     LegendNANA
23:00 8.1 2.8 69 0.0 34 5   100.79     LegendNANA

Notes on Data Quality.

Legend

  • E = Estimated
  • M = Missing
  • NA = Not Available*
  • [empty] = Indicates an unobserved value
Date modified: